[Date Prev][Date Next][Thread Prev][Thread Next][Date Index][Thread Index]

[jamsat-news:560] jas2info#37


=========================   最新情報   =========================

    Last updated:Fri,6− June−97  20:30 (JST) #37

================================================================
   
   衛星情報 FOシリーズの軌道要素、テレメトリ、QSOの状況等をま
 とめてみました.

  1)FO−29(ふじ3号)は6月6日(金)の19:00(JST)
    のパスではJAアナログモードでJARLのスケジュールどうりに
    運用されています. 
    
  ・軌道要素1:「jamsatーkeps:589」より
               SB KEPS @ AMSAT  $ORBS-157.N
               2Line Orbital Elements 157.AMSAT

 HR AMSAT ORBITAL ELEMENTS FOR AMATEUR SATELLITES IN NASA FORMAT
 FROM WA5QGD FORT WORTH,TX June 6, 1997
 SEND SUBSCRIBE/UNSUBSCRIBE TO listserv@amsat.org ONLY
 BID: ORBS-157.N

   DECODE 2-LINE ELSETS WITH THE FOLLOWING KEY:
  1 AAAAAU 00  0  0 BBBBB.BBBBBBBB  .CCCCCCCC  00000-0  00000-00 
    DDDZ
  2 AAAAA EEE.EEEE FFF.FFFF GGGGGGG HHH.HHHH III.IIII JJ.JJJJJJJJ
    KKKKKZ
  KEY: A-CATALOGNUM B-EPOCHTIME C-DECAY D-ELSETNUM E-INCLINATION 
       F-RAAN
  G-ECCENTRICITY H-ARGPERIGEE I-MNANOM J-MNMOTION K-ORBITNUM 
       Z-CHECKSUM
   FO-29
   1 24278U 96046B   97149.13001483 -.00000032  00000-0  57154-5 0
     00891
   2 24278 098.5398 192.9568 0350538 235.6043 121.1490 13.526304800
     38544

  ・軌道要素:「jamsatーkeps:588」より
               SB KEPS @ AMSAT  $ORBS-150.O
               Orbital Elements  150.OSCAR

 HR AMSAT ORBITAL ELEMENTS FOR OSCAR SATELLITES
 FROM WA5QGD FORT WORTH,TX May 30, 1997
 SEND SUBSCRIBE/UNSUBSCRIBE TO listserv@amsat.org ONLY
 BID: ORBS-150.O
 TO ALL RADIO AMATEURS BT
 
 Satellite: FO-29
 Catalog number: 24278
 Epoch time:      97149.13001483
 Element set:    0089
 Inclination:      098.5398 deg
 RA of node:       192.9568 deg
 Eccentricity:    0.0350538
 Arg of perigee:   235.6043 deg
 Mean anomaly:     121.1490 deg
 Mean motion:   13.52630480 rev/day
 Decay rate:       -3.2e-07 rev/day^2
 Epoch rev:           03854
 Checksum:              317
 -----------------------------------------------------------
   *FO−29 のFMデジトーカについて
 
  1) [jamsat-2544]にJA3CFの岩崎好宏さんが投稿されてます、
      一部ですがご紹介します.
  
   久しぶりにFO-29のデジトーカがオンになっているという情報で受信
  してみました。「This is JAS-2」という女性の声に続いてウグイスが
  「ホーホケキョ」とひとこと鳴きます.

   このデジトーカが人気があるのでスケジュールを変更しているそう
  ですので、ここに最新情報をお届けします.(内容は入門者向け)
   --------------------------------------------------------
          「ふじ3号」デジトーカ受信キット

                   (社)日本アマチュア無線連盟
                      技術研究所

  岩崎 好宏     JA3CF    E-mail <ja3cf@jamsat.or.jp>
          URL <http://www.asahi-net.or.jp/~pt5y-iwsk>

 2) [jamsat-bb 2549]にデジトーカの受信状況をJA6BXの江崎昌男氏が
   投稿されてますのでご紹介します.

 既報の「うぐいすの声」デジトーカーをハンディ機で室内受信を試みました.
 
  4/4日 20:25JST前後のパスでしたが、約8分間ハンディ機付
属の短縮ホイップでもメリット5で入感していました。 「ホーホケキョ」の
周波数帯域が特にハンディ機のオーディオ特性にも相性がよいようです. 
  信号強度も去年の9月にデジトーカー運用の初期に比べると安定して、
強力になったように感じられます.

  アマチュア無線や、衛星通信に無関係の人たちに聞かせてあげるのにもっ
てこいのデモンストレーションと言えます.

 使用機:STANDARD C520 
 アンテナ:付属の短縮型ホイップ
 受信場所:福岡市南区(PM53EN)木造家屋の二階
 天候:雨
                                                       以 上
    73, de JA6BX - Y. Esaki 34122731@people.or.jp 
                         or, ja6bx@jamsat.or.jp
                             ja6bx@amsat.org  
---------------------------------------------------------------  
 *FO−29(ふじ3号)の6月4日(水)のJDディジタルモード、
 9600bpsで運用中のTNC解読によるテレメトリの最後の部分です.
(熊本市)

 AS3940P  4Jun97
 JST 20:50 ー 21:03
 Freq.435.915 ー908MHz  FM  RS 59+20db

8J1JCS>BEACON [06/04/97  20:55:43]:
JAS-2    '97/06/04 11:52:58
AC 03 03 28 00 22 00 00 00 00
00 00 65 D7 0C 6B 53 90 8E 9B
AA 52 A8 01 CE B5 B9 B9 B7 B8
8J1JCS>BEACON [06/04/97  20:55:44]:
D5 02 00 09 40 80 F6 40 00 00
C6 4D 02 59 16 74 76 7A 85 7F
00 00 00 AE 79 B3 F7 00 00 00
8J1JCS>BEACON [06/04/97  20:55:44]:
User not connect.
8J1JCS>BEACON [06/04/97  20:55:44]:
Total   21 File(s)

 No.  Date  UTC    To    From   Size   Subject
0218 06/01 09:46 ALL    DK5EC      181 Greetings from Koenig
8J1JCS>BEACON [06/04/97  20:55:44]:swinter/Seven Mou
0217 06/01 09:
19 ALL    7N1JVW     986 2Line Orbital Elements 150.AMSAT
0205 05/29 19:20 ALL    I4WRM      110
8J1JCS>BEACON [06/04/97  20:55:45]: Ciao from Italy
0159 05/24 09:
19 ALL    7N1JVW    5909 2Line Orbital Elements 97143
0144 05/13 23342 ALL    JA0JWS     509 HELL
8J1JCS>BEACON [06/04/97  20:55:45]:O
0125 05/11 09:25 ALL    DA1LA       86 Hello
0118 05/10 12:15 ALL    KB2MVN      57 Any one work 9600?
0108 05/09 07:55 ALL   
8J1JCS>BEACON [06/04/97  20:55:45]:
 ON6MP       75 hello from Belgium
0106 05/08 10:
31 ALL    ON6MP        1  0088 05/06 08:
57 ALL    IK8OZV      33 2Line Orbital 
8J1JCS>BEACON [06/04/97  20:55:46]:Elements 122.Amsat
Total 03 user(s)
Call sign  Remain time
JA6AQV-0   00:00
JR5EBL-0   00:00
JH7XAO-0   05:32

*横に長い部分は改行を加えました.(JH6MME)

*FO−29(ふじ3号)の6月6日(金)のJAアナログモード、
 NC解読によるテレメトリの一部分です.
(熊本市)
 AS3966P  6Jun97
 JST 19:00 ー 19:17
 Freq.             MHz         CW  RS 59

                 92 8F 9C 84 B9 B8 B9 B9 B5 
  HI HI AE 07 88 55 8C 26 EE 0D 00 58 6E 6D
           73 51 92 8F 9D 78 B9 B8 B9 B9 B5 
  HI HI AE 07 88 55 91 26 FF 0D 00 58 6C 6B 
           74 4D 92 8F 9D A4 B9 B8 B9 B9 B5 
  HI HI AE 07 88 55 96 26 1E 25 00 58 7E 
 ----------------------------------------------------
 2)FO-20(ふじ2号): JAモードの運用で順調に作動しています.
     アナログモードにてのQSOや思わぬDXが楽しめます.

  ・軌道要素1 :出典は「ふじ3号」に同じ.   
 
  FO-20
  1 20480U 90013C   97148.93172903 -.00000011  00000-0  40926-4 0 
    09842
  2 20480 099.0442 114.1435 0541323 060.9700 304.4528 12.83238418
    342233

  ・軌道要素2 :

 Satellite: FO-20
 Catalog number: 20480
 Epoch time:      97148.93172903
 Element set:    0984
 Inclination:      099.0442 deg
 RA of node:       114.1435 deg
 Eccentricity:    0.0541323
 Arg of perigee:   060.9700 deg
 Mean anomaly:     304.4528 deg
 Mean motion:   12.83238418 rev/day
 Decay rate:       -1.1e-07 rev/day^2
 Epoch rev:           34223
 Checksum:              281
  -------------------------------------------------------
 *FO−20 JAモードでRS 59程度で(受信感度はアンテナより
   見て約125db)非常に強力な信号で受信できています。衛星の
   現在の状態を符号化し、知らせるビーコン波にのっているテレメトリ
   です.
    6月6日(金) JST  15:36 のパスの 一部分です。
   (TNCで解読)
   AS34325C  6June97      CW   RS 59
   JST 15:36 - 15:50
  
 HI HI 138 149 170 171 285 284 252 262 351 352 
       353 352 401 435 402 400 500 520 500 500 
 HI HI 138 149 170 171 285 284 252 262 351 352 
       353 352 401 435 402 400 500 525 500 500 
 HI HI 138 149 170 171 285 284 252 262 351 352 
       353 352 401 435 402 400 500 520 500 500
 -----------------------------------------------------------------
 *FOー20のJAモードでアナログQSO

 [jamsat-bb:2429]に投稿されたJA6BX局江崎昌男氏のQSOの状況です.

     2/12日の18:02JSTに、UA4NM Kirov の VladさんとFO-20経由でQSO
  しました.
  当方はLOS寸前で、当局のCWでのCQに答えてくれたものですが、FO-20で
  は初めてのUA4です.
* 後日、江崎氏のコメント:                                  
    昨日QSOできたUA4NMは1987年にAO−10でQSOしていま
 すが、FO−20/29のような低軌道衛星では、昨年のOH5LK以来の
 DXで、大変うれしく思います.
                     73, de JA6BX - Y. Esaki 34122731@people.or.jp 
                                            or, ja6bx@jamsat.or.jp          
=======================   JARL運用情報   =======================

   JARL News 5月号を見ていたら、27ページに「ふじ3号」の運用スケジュ
  ールが載っていました.

        ■ ふじ3号 ■ の運用予定

   6月  6日(金)  08:25(17:25) JA
       13日(金)  00:39(09:39) JD1200
       20日(金)  09:41(18:41) JD9600
       27日(金)  00:11(09:11) JA
   7月  4日(金)  09:13(18:13) デジカート
         8日(金)  09:06(18:06) JA
 *切替時刻はUTCで表示しています.カッコ内の時刻は
   日本時間です.なお、都合により運用モードを変更する
   場合があります.
   JA:アナログ系運用
   JD:ディジタル系運用
       *1200bps PSK   メールボックス運用
       *9600bps PSK   メールボックス運用
       *デジトーカ       FM音声メッセージ送信

            ■ ふじ2号 ■
    「ふじ2号」はアナログ系の連続運用とします.   
 
                               以上「JARL NEWS 5月号より」

 =============   JAS-2 (ふじ3号)と現在までの情報   ===========
  
  A.電話によるふじ3号の運用情報
      社団法人日本アマチュア連盟によるサービス
               TEL No.   03− 3942 − 1000
   6月5日(木)現在#67のJDモード9600bpsのディジタル
   運用を継続とスケジュール変更はTELサービスで連絡のアナウンスが
   流れています.

  B.アマチュア無線FAXサービス
      JARLによるふじ3号の軌道情報(オービットカレンダー)
         FAX No.  03− 3233 −0055 

  C.WWWブラウザで情報を簡単に見れる人のためにJAS−2
     ふじ3号の衛星としての運用されるまでの名前)の概要、打ち上げ
     までの状況、運用中における状況を説明したホームページを紹介し
     ておきます.

    1)社団法人日本アマチュア無線連盟(JARL)のホームページ
          http://www.jarl.or.jp/jarl/jas-2/index.htm

    2)宇宙開発事業団(NASDA)ホームページ 
         http://www.nasda.go.jp/
         打上げ衛星 :地球観測プラットフォーム技術衛星(ADEOS) 
                       アマチュア衛星3号(JAS-2)
     http://yyy.tksc.nasda.go.jp/Home/Press/Press-j/jas-2_j.html
                                                       
  D.JAMSATによる軌道計算ソフトの活用
      本欄またはjamsat−kepsの軌道要素よりパソコンを利用して軌道
    計算用ソフトを使い衛星の軌道情報(オービットカレンダー)を得る.

 =====================   JAMSAT コーナー  ======================
  
                      ==JAMSAT総会、シンポジウム '97 ==
 
      盛会の内無事終了しました、その模様はJASMAT Newsletter
    等で報告されるでしょう. 

 =====================  その他 の情報  =========================
      
  *FO−29「ふじ3号」のデジタル系テレメトリの解読 (4 )

    JARL NEWSの4月号20ページからのテレメトリーのフレーム
      フォーマットに従い、4月18日(金)の最後の1200bpsのテレ
      メトリーを解読してみましょう.
       1)フレーム0
          8J1JCS>BEACON [04/18/97  09:43:54] <UI C>:
          JAS-2    '97/04/18 00:41:07
           9C 03 63 08 00 FC 00 00 00 00
           00 00 46 8D 10 7D 60 92 90 B0
           AB 52 A8 02 F0 B2 B6 B6 B3 B5
          
        2)フレーム1
           8J1JCS>BEACON [04/18/97  09:43:55] <UI C>:
           D5 02 00 09 00 00 85 40 00 00
           2D 49 3C 4E 7B B3 B5 82 7C 81
           00 00 00 A7 82 B3 F7 00 00 00
      
        まずフレーム0かフレーム1かの判定をしてみると各フレームの最初
        の16進数を2進数に変えて最下位の桁を調べてみます.
             16進数   9C             1001 1100  で最後が 
                                                   0でフレーム0 
             16進数  D5             1101 0101  で最後が
                                                    1でフレーム1

        フレームの取り方は間違いないようですね.

        ・アナログデーターを見てみましょう. フレーム0の分かりやすい
          太陽電池の発生電流をみてみます、テレメトリー出力位置はF0:
          フレーム0、15(4A):
           左の表の15の位置、このフレームをアナログCWテレメトリーと
          同様に置き換えると
              フレーム0:
                1A  1B  1C  1D  1E
                2A  2B  2C  2D  2E
                3A  3B  3C  3D  3E
                4A  4B  4C  4D  4E
                5A  5B  5C  5D  5E
                6A  6B  6C  6D  6E
       となり、15の位置は4Aの位置に相当します.
       フレーム0から15の位置には16進数7Dがあります、16進数の
      7Dは10進数に変換すると125になります.(変換方法はこの
      シリーズの(2)を見てください.)
                     I = 0.009804×125
                       = 1.2255 [A]          1225.5 [mA]
      となります. 
        これをCWテレメトリと比較してみましょう、ただし衛星の軌道に
      よりかなり違ってきます.
        同様にして他のデータも解読してみましょう.
      次回はも少しアナログデータについて解読してみましょう.
     
      JARLのホームページの中の             
          http://www.kt.rim.or.jp/~jr1nvu/tlmindx.html
      にもテレメトリの解読方についてアナログとデジタルについて
      分かりやすく解説してあります.
   ---------------------------------------------------------------
    JAMSATのメンバーのご協力に よりJH6MME(高山 秀造)が
    執筆・編集を担当しております.ご指摘の意見、疑問やこのように
    したらというアイデアがありましたら小さなことでもかまいませんので
    気軽に下記アドレスまでご連絡ください.
                                    Eーmail :   jh6mme@jamsat.or.jp                
  ==============================   END  =======================